Location: Lahas
(43.5538°N, 0.8906°E)
Time: 11:21:04
(UTC+00:00)

Cosmos 1777 Rocket - Pass Details

Date: 15 May 2026
Orbit: 754 x 771 km, 74.0° (Epoch: 7 June)

Event Time Altitude Azimuth Distance (km) Brightness Sun altitude
Rises 21:34:03 0° 339° (NNW) 3,238 8.7 -19.8°
Reaches altitude 10° 21:36:26 10° 339° (NNW) 2,305 7.6 -20.0°
Maximum altitude 21:41:41 90° 76° (ENE) 766 3.9 -20.6°
Enters shadow 21:43:21 45° 161° (SSE) 1,032 4.2 -20.7°
